Location: Αθήνα
(37.9839°N, 23.7283°E)
Time: 22:03:01
(UTC+03:00)

EO-79 - Pass Details

Date: 25 June 2024
Orbit: 555 x 577 km, 98.0° (Epoch: 19 July)

Event Time Altitude Azimuth Distance (km) Brightness Sun altitude
Rises 04:03:35 0° 24° (NNE) 2,745 ? -18.6°
Reaches altitude 10° 04:05:56 10° 36° (NE) 1,843 ? -18.3°
Maximum altitude 04:09:26 29° 97° (E) 1,037 ? -17.9°
Enters shadow 04:12:28 12° 155° (SSE) 1,684 ? -17.5°
